CST,Max TemperatureF,Mean TemperatureF,Min TemperatureF,Max Dew PointF,MeanDew PointF,Min DewpointF,Max Humidity, Mean Humidity, Min Humidity, Max Sea Level PressureIn, Mean Sea Level PressureIn, Min Sea Level PressureIn, Max VisibilityMiles, Mean VisibilityMiles, Min VisibilityMiles, Max Wind SpeedMPH, Mean Wind SpeedMPH, Max Gust SpeedMPH,PrecipitationIn, CloudCover, Events, WindDirDegrees
2013-7-1,90,82,73,75,73,70,94,80,55,29.93,29.87,29.80,12,7,3,13,6,,0.67,5,Rain-Thunderstorm,137
2013-7-2,91,82,72,75,73,71,94,81,56,29.93,29.87,29.82,12,6,0,13,3,,2.13,6,Rain-Thunderstorm,259
2013-7-3,88,80,72,76,74,70,93,78,66,29.93,29.89,29.83,12,8,6,10,5,,0.04,6,,92
2013-7-4,87,80,73,77,74,72,94,80,60,29.96,29.90,29.84,12,8,6,10,5,,0.04,6,Fog-Rain-Thunderstorm,306
2013-7-5,91,82,72,73,71,68,89,63,42,29.89,29.84,29.79,12,9,6,14,7,,0.00,5,,86
2013-7-6,91,82,74,74,73,72,94,74,53,29.87,29.82,29.77,12,8,6,13,6,,0.08,6,Rain-Thunderstorm,135
2013-7-7,88,80,73,75,70,67,94,65,47,29.86,29.81,29.78,12,8,6,16,7,,0.00,6,Fog,102
2013-7-8,92,82,71,72,70,68,94,63,44,29.90,29.85,29.82,12,9,6,14,6,,0.00,6,,76
2013-7-9,89,82,75,73,72,72,89,65,53,29.90,29.87,29.83,12,8,6,16,7,,0.00,6,,61
2013-7-10,92,84,76,75,72,70,84,61,42,29.90,29.84,29.79,12,8,6,13,7,,0.00,6,,87
2013-7-11,81,77,73,73,72,70,94,85,74,29.91,29.88,29.84,12,6,2,7,3,,0.12,6,Rain,228
2013-7-12,90,82,73,76,74,71,94,77,61,29.94,29.88,29.81,12,8,6,12,4,,0.79,6,Rain,143
2013-7-13,90,82,75,76,75,73,94,74,55,29.93,29.86,29.79,12,8,6,13,5,,0.00,6,Thunderstorm,262
2013-7-14,90,82,73,76,73,72,94,69,49,29.86,29.82,29.76,12,7,0,15,5,,0.00,4,Fog-Rain,86
2013-7-15,93,84,75,74,71,68,83,59,39,29.84,29.79,29.73,12,8,6,18,7,,0.00,6,,80
2013-7-16,93,82,72,72,70,68,88,57,39,29.86,29.79,29.74,12,8,6,21,8,,0.00,6,,70
2013-7-17,93,83,73,75,72,71,89,68,42,29.88,29.83,29.76,12,8,6,21,7,26,0.08,6,Rain,94
2013-7-18,92,82,73,77,74,72,89,73,48,29.89,29.85,29.79,12,8,6,8,4,,0.00,6,,171
2013-7-19,87,81,75,75,71,68,94,73,45,29.88,29.84,29.80,12,7,2,17,6,,0.02,7,Rain,106
2013-7-20,92,83,74,76,74,72,89,70,47,29.88,29.82,29.77,12,8,6,9,4,,0.00,6,,102
2013-7-21,89,80,72,75,72,70,94,72,50,29.88,29.83,29.78,12,8,6,12,4,,0.00,6,,313
2013-7-22,90,81,72,73,71,69,89,67,50,29.91,29.87,29.83,12,7,6,13,8,,0.00,6,,101
2013-7-23,93,82,72,73,71,68,88,62,40,29.90,29.84,29.79,12,8,6,14,7,,0.00,6,,83
2013-7-24,89,82,75,75,73,72,94,74,52,29.83,29.79,29.74,12,7,3,16,8,,0.24,6,Rain,76
2013-7-25,87,82,77,77,75,73,89,80,70,29.88,29.84,29.81,12,7,5,14,8,,0.04,6,Rain,97
2013-7-26,91,84,76,73,71,68,70,61,42,29.89,29.86,29.83,12,8,6,16,9,,0.00,7,,85
2013-7-27,91,84,77,72,70,68,78,61,47,29.87,29.84,29.81,12,7,6,20,12,,0.00,5,Rain,85
2013-7-28,91,82,74,75,71,70,89,63,42,29.91,29.85,29.80,12,8,6,13,8,,0.00,6,Thunderstorm,93
2013-7-29,92,82,73,75,71,68,94,66,41,29.93,29.87,29.83,12,8,6,14,7,,0.00,7,,98
2013-7-30,93,82,71,72,70,68,88,58,40,29.95,29.91,29.87,12,8,6,15,8,,0.00,3,,78
2013-7-31,87,80,74,75,73,70,94,75,51,29.95,29.90,29.86,12,8,6,9,5,,0.04,7,Rain,92